Dewpoint
71 73 75 75 75 75 75 75 74 74 74 74 74 74 75 76 76 76 76 75 75 75 75 75 75 74 74 74 74 74 74 73 73 73 73 73 73 73 74 74 74 71 73
71 73 75 76 75 74 74 74 75 75 75 75 74 74 74 75 76 76 76 76 75 75 75 75 75 74 74 74 73 73 73 73 74 73 73 73 73 74 73 73 73 72 73
71 73 73 76 75 74 74 75 75 74 74 75 74 74 74 75 76 76 75 75 75 75 75 75 74 74 73 73 72 73 73 74 73 73 73 72 71 73 73 73 73 73 73
72 72 73 76 75 74 75 74 74 74 75 75 74 74 73 74 75 75 75 75 75 75 75 75 74 74 73 73 73 73 73 73 72 73 69 69 71 73 73 72 73 73 73
71 72 73 75 74 74 73 74 74 75 75 75 75 74 74 75 75 75 75 75 75 75 75 75 75 74 74 74 73 73 73 73 72 70 70 70 70 71 72 72 72 73 73
71 71 73 74 73 74 74 74 74 74 75 75 75 75 75 75 74 74 75 75 75 75 74 73 73 72 72 71 72 72 71 73 73 71 71 72 71 73 72 72 72 71 70
70 71 72 74 73 73 74 74 74 75 74 75 74 75 75 75 75 75 75 74 74 75 74 73 73 72 72 72 71 72 73 73 70 71 70 69 70 73 71 71 71 71 71
70 71 72 74 73 72 73 74 75 75 75 75 74 75 75 74 74 75 75 74 74 73 73 73 73 73 73 71 72 74 74 72 69 69 69 70 73 73 72 72 72 72 72
70 70 71 71 72 73 73 74 74 74 74 75 75 75 75 75 75 75 75 75 73 73 73 73 73 73 73 73 73 74 73 72 69 69 69 71 75 73 73 72 73 73 73
67 68 68 71 71 72 72 74 74 74 74 75 75 75 75 74 74 74 76 75 73 73 74 74 74 74 75 74 75 75 74 73 70 70 69 71 75 73 73 72 72 72 73
66 67 70 70 70 71 71 72 73 74 74 74 74 75 75 74 73 73 74 74 73 73 73 73 73 73 73 72 71 72 74 71 71 70 70 72 74 73 72 73 73 73 74
66 68 69 70 70 70 73 71 71 71 70 71 72 73 73 73 73 73 74 74 73 73 73 72 72 72 73 68 70 70 70 69 71 70 69 72 73 73 73 73 74 74 74
66 68 68 68 69 70 70 70 71 70 68 69 71 71 71 70 71 73 72 73 72 73 72 71 71 72 70 66 68 66 66 62 68 70 70 70 74 74 73 74 73 74 74
66 67 67 68 68 68 71 71 70 69 68 69 71 69 70 70 69 70 71 71 70 71 69 70 70 70 69 66 68 64 66 62 69 70 69 70 72 74 73 73 73 74 73
65 67 66 68 68 68 70 70 70 69 70 70 70 71 70 70 68 68 68 68 69 70 69 69 69 69 70 69 68 68 68 67 69 71 70 70 71 74 74 73 74 74 74
64 66 66 67 68 68 68 68 68 69 70 70 70 70 69 69 69 67 68 69 69 69 68 69 69 69 69 68 67 67 66 69 70 70 71 69 71 75 74 74 74 75 74
64 66 65 67 67 66 67 67 67 67 68 68 70 69 67 68 69 69 68 68 70 68 67 68 68 68 68 68 66 68 68 68 70 69 71 70 70 74 74 75 76 77 75
64 66 66 64 67 66 65 66 66 67 68 69 70 70 68 68 67 67 68 68 66 65 68 67 66 66 66 67 65 68 68 68 67 69 70 70 71 72 74 76 76 76 76
65 66 66 65 66 65 64 66 66 67 68 68 69 69 65 68 68 66 65 66 65 66 69 67 64 66 66 64 66 65 66 65 65 66 68 71 71 72 73 73 76 75 75
66 66 66 65 65 64 64 66 68 68 68 70 68 68 67 68 69 67 64 65 66 65 68 65 62 68 67 64 61 61 63 64 65 65 66 69 71 72 72 72 73 74 73
66 67 66 66 65 64 64 65 66 66 67 67 66 67 66 67 67 67 64 65 65 64 67 68 67 67 64 64 63 63 65 62 62 64 67 69 71 72 71 72 73 73 75
66 66 66 66 66 65 64 66 66 66 67 68 66 66 66 66 67 65 65 64 64 67 69 68 69 68 65 67 64 63 56 56 61 64 66 67 67 70 72 73 73 72 73
65 66 66 66 66 66 66 68 68 68 68 68 66 65 67 67 66 62 64 63 67 70 68 69 69 67 63 66 66 62 58 52 58 61 64 67 64 65 67 70 71 72 73
63 65 65 66 66 67 68 67 67 66 66 67 67 65 68 68 65 64 65 63 70 70 68 68 70 65 62 62 64 64 63 57 53 58 64 65 66 64 64 68 65 70 73
62 64 65 66 66 67 68 68 67 64 65 67 68 67 68 68 66 67 68 64 70 70 69 69 69 65 66 63 63 61 61 62 62 62 60 61 65 66 66 67 68 66 70
64 66 66 67 66 67 67 68 67 65 65 67 67 68 68 68 68 67 70 70 70 70 70 70 70 70 70 68 66 62 63 65 65 63 61 61 62 65 67 68 67 68 70
Lifted_Index
-3 -4 -4 -5 -4 -4 -4 -4 -4 -4 -4 -4 -4 -4 -4 -5 -5 -5 -5 -5 -5 -6 -5 -5 -5 -5 -5 -5 -5 -5 -5 -5 -5 -6 -6 -6 -6 -7 -7 -7 -7 -7 -7
-3 -4 -4 -5 -5 -4 -4 -4 -5 -5 -5 -4 -4 -4 -4 -5 -5 -5 -5 -5 -5 -5 -5 -5 -5 -5 -5 -5 -5 -5 -5 -6 -6 -6 -6 -6 -6 -7 -7 -7 -7 -8 -8
-4 -4 -4 -5 -5 -4 -4 -4 -5 -5 -5 -5 -4 -4 -4 -5 -5 -5 -5 -5 -5 -5 -5 -5 -5 -5 -4 -4 -4 -5 -5 -6 -6 -6 -6 -6 -6 -7 -7 -7 -7 -8 -8
-4 -4 -4 -5 -5 -4 -4 -4 -4 -4 -5 -5 -5 -4 -4 -5 -5 -5 -5 -5 -5 -5 -5 -5 -5 -5 -5 -4 -4 -5 -5 -5 -5 -5 -5 -5 -6 -7 -7 -7 -7 -8 -8
-4 -4 -4 -4 -4 -4 -4 -4 -4 -4 -5 -5 -5 -4 -5 -5 -5 -5 -5 -5 -5 -5 -5 -4 -4 -4 -4 -4 -4 -5 -5 -5 -5 -5 -5 -5 -6 -6 -6 -7 -7 -7 -7
-3 -4 -4 -4 -4 -4 -4 -4 -4 -4 -5 -5 -5 -5 -5 -5 -5 -5 -5 -5 -5 -5 -4 -4 -4 -4 -4 -4 -4 -5 -5 -5 -5 -5 -5 -5 -6 -6 -6 -6 -6 -6 -6
-3 -4 -4 -4 -4 -3 -3 -4 -4 -4 -4 -4 -5 -5 -5 -5 -5 -5 -5 -5 -4 -4 -4 -4 -4 -4 -4 -4 -5 -5 -5 -5 -4 -4 -5 -5 -5 -6 -6 -6 -6 -6 -6
-3 -4 -4 -4 -4 -3 -3 -4 -4 -4 -4 -4 -5 -5 -5 -5 -5 -6 -5 -5 -4 -4 -4 -4 -5 -5 -5 -5 -5 -6 -5 -5 -4 -3 -4 -4 -5 -6 -6 -6 -6 -6 -6
-3 -3 -4 -4 -4 -3 -3 -4 -4 -4 -4 -5 -5 -5 -6 -6 -6 -6 -6 -5 -5 -4 -5 -5 -5 -6 -6 -6 -6 -6 -6 -5 -3 -3 -3 -4 -5 -6 -6 -6 -6 -6 -6
-2 -2 -3 -3 -3 -3 -3 -4 -4 -4 -4 -5 -5 -6 -6 -6 -6 -6 -6 -5 -5 -5 -5 -6 -6 -6 -6 -6 -6 -6 -6 -5 -4 -3 -3 -4 -5 -6 -6 -6 -6 -6 -6
-1 -1 -2 -2 -2 -2 -3 -3 -3 -4 -4 -5 -5 -5 -5 -5 -5 -6 -6 -5 -5 -5 -5 -6 -6 -6 -6 -5 -5 -5 -5 -5 -4 -3 -3 -4 -5 -6 -6 -6 -6 -6 -6
-0 -0 -1 -1 -1 -1 -2 -3 -3 -3 -3 -4 -4 -5 -5 -5 -5 -5 -5 -5 -5 -5 -5 -5 -5 -5 -5 -4 -4 -4 -4 -4 -4 -4 -3 -4 -5 -6 -6 -6 -7 -7 -7
-0 -0 -1 -1 -1 -1 -1 -2 -2 -2 -2 -2 -3 -4 -4 -4 -4 -5 -5 -5 -4 -4 -4 -4 -4 -4 -4 -3 -3 -3 -3 -3 -3 -3 -3 -3 -5 -6 -6 -6 -6 -6 -6
-0 0 0 0 0 0 -0 -0 -0 -0 -0 -1 -2 -3 -3 -4 -4 -4 -4 -3 -3 -3 -3 -3 -3 -3 -3 -3 -3 -3 -3 -3 -3 -3 -2 -3 -4 -5 -5 -6 -6 -6 -6
0 1 1 1 1 1 1 0 1 0 -0 -1 -2 -2 -3 -3 -3 -3 -3 -2 -2 -2 -2 -2 -2 -3 -3 -3 -3 -3 -3 -3 -3 -3 -2 -2 -3 -4 -5 -5 -5 -6 -6
1 1 1 1 1 1 1 1 1 0 -0 -1 -1 -2 -2 -3 -3 -3 -2 -2 -2 -2 -2 -2 -3 -3 -3 -3 -3 -3 -3 -3 -3 -3 -3 -2 -3 -4 -5 -5 -5 -6 -6
1 1 1 1 1 1 1 1 1 0 -0 -1 -1 -2 -2 -2 -2 -2 -2 -2 -2 -2 -2 -2 -2 -3 -3 -3 -3 -3 -3 -3 -3 -3 -3 -3 -3 -4 -5 -5 -5 -6 -6
0 1 1 1 1 1 1 1 1 1 -0 -1 -2 -2 -2 -2 -2 -2 -2 -2 -2 -2 -2 -2 -2 -2 -3 -3 -3 -3 -3 -3 -3 -3 -3 -3 -3 -4 -4 -5 -5 -6 -6
-0 -0 0 1 1 1 1 1 1 0 -0 -1 -2 -2 -2 -2 -2 -2 -2 -2 -2 -2 -2 -2 -2 -3 -3 -3 -3 -2 -2 -2 -3 -3 -3 -3 -3 -3 -4 -4 -5 -5 -6
-1 -1 -0 0 0 1 0 0 -0 -1 -1 -2 -2 -3 -2 -1 -1 -2 -2 -2 -2 -2 -2 -2 -3 -3 -3 -2 -2 -2 -2 -2 -2 -2 -3 -3 -3 -3 -3 -4 -4 -5 -5
-1 -1 -1 -1 -0 -0 -0 -1 -1 -2 -2 -2 -3 -3 -2 -1 -1 -1 -1 -2 -2 -3 -3 -3 -3 -4 -3 -2 -2 -2 -2 -2 -2 -2 -2 -3 -3 -3 -3 -3 -4 -4 -4
-1 -1 -1 -1 -1 -1 -1 -1 -2 -2 -3 -3 -3 -3 -2 -1 -1 -1 -1 -2 -3 -3 -3 -4 -4 -4 -3 -3 -2 -2 -2 -1 -1 -0 -1 -2 -3 -3 -3 -3 -3 -3 -4
-1 -1 -2 -1 -1 -1 -1 -2 -2 -3 -3 -3 -3 -3 -2 -2 -1 -0 -0 -2 -3 -4 -4 -4 -4 -4 -3 -3 -2 -2 -2 -1 -0 0 -0 -1 -1 -1 -2 -2 -2 -3 -3
-1 -1 -2 -2 -2 -1 -1 -2 -2 -3 -3 -3 -3 -3 -3 -2 -2 -1 -1 -2 -4 -4 -4 -4 -4 -4 -3 -3 -2 -2 -2 -1 -1 -1 -1 -1 -1 -0 -1 -1 -1 -2 -2
-1 -1 -1 -2 -2 -2 -1 -1 -2 -2 -3 -3 -3 -3 -3 -2 -2 -2 -2 -3 -4 -4 -4 -4 -4 -4 -3 -3 -2 -2 -2 -2 -2 -2 -2 -2 -1 -1 -1 -0 -0 -1 -1
-1 -1 -1 -1 -1 -1 -1 -1 -1 -2 -2 -3 -3 -3 -3 -3 -3 -3 -3 -4 -4 -5 -4 -4 -4 -4 -4 -3 -2 -2 -2 -2 -3 -3 -3 -2 -2 -2 -1 -1 -0 0 -0